Weather History for Ponca City, OK

Change the Weather History Date:

Saturday, March 29, 2014

  Actual Average Record
Temperature  
Mean Temperature 47 °F -  
Max Temperature 68 °F 66 °F 85 °F (1963)
Min Temperature 28 °F 40 °F 24 °F (1950)
Degree Days  
Heating Degree Days 18    
Moisture  
Dew Point 29 °F    
Average Humidity 57    
Maximum Humidity 93    
Minimum Humidity 20    
Precipitation  
Precipitation 0.00 in - - ()
Sea Level Pressure  
Sea Level Pressure 30.23 in    
Wind  
Wind Speed 3 mph (ENE)    
Max Wind Speed 13 mph    
Max Gust Speed -    
Visibility 7 miles    
Events      
Averages and records for this station are not official NWS values.
T = Trace of Precipitation, MM = Missing Value Source: NWS Daily Summary

Daily Weather History Graph

Daily Weather History Graph

Search for Another Location

Airport:

Trip Planner

Search our weather history database for the weather conditions in past years. The results will help you decide how hot, cold, wet, or windy it might be!

Date:

Astronomy

Mar. 29, 2014 Rise Set
Actual Time 7:18 AM CDT 7:48 PM CDT
Civil Twilight 6:52 AM CDT 8:14 PM CDT
Nautical Twilight 6:22 AM CDT 8:44 PM CDT
Astronomical Twilight 5:51 AM CDT 9:15 PM CDT
Moon 6:26 AM CDT (3/29) 6:55 PM CDT (3/29)
Length of Visible Light 13h 21m
Length of Day
12h 29m
Waning Crescent, 2% of the Moon is Illuminated
Mar 29
Waning Crescent
Mar 30
New
Apr 7
First Quarter
Apr 15
Full
Apr 22
Last Quarter

Hourly Weather History & Observations

Time (CDT) Temp. Windchill Dew Point Humidity Pressure Visibility Wind Dir Wind Speed Gust Speed Precip Events Conditions
12:53 AM 32.0 °F 28.7 °F 28.0 °F 85% 30.17 in 7.0 mi North 3.5 mph - N/A   Clear
1:53 AM 30.9 °F - 26.1 °F 82% 30.18 in 6.0 mi Calm Calm - N/A   Haze
2:53 AM 30.0 °F - 26.1 °F 85% 30.18 in 6.0 mi Calm Calm - N/A   Clear
3:53 AM 30.0 °F 25.2 °F 26.1 °F 85% 30.19 in 6.0 mi North 4.6 mph - N/A   Clear
4:53 AM 30.0 °F 25.2 °F 27.0 °F 88% 30.21 in 5.0 mi NNW 4.6 mph - N/A   Clear
5:53 AM 30.0 °F 24.1 °F 27.0 °F 88% 30.23 in 5.0 mi NNE 5.8 mph - N/A   Clear
6:53 AM 30.9 °F - 28.0 °F 89% 30.29 in 4.0 mi Calm Calm - N/A   Clear
7:29 AM 28.4 °F - 26.6 °F 93% 30.29 in 2.5 mi Calm Calm - N/A   Clear
7:53 AM 30.0 °F - 27.0 °F 88% 30.30 in 3.0 mi Calm Calm - N/A   Clear
8:53 AM 37.9 °F - 33.1 °F 83% 30.31 in 3.0 mi Calm Calm - N/A   Haze
9:53 AM 45.0 °F - 36.0 °F 71% 30.31 in 5.0 mi Calm Calm - N/A   Haze
10:53 AM 51.1 °F - 35.1 °F 54% 30.32 in 6.0 mi Calm Calm - N/A   Haze
11:53 AM 55.9 °F - 36.0 °F 47% 30.31 in 7.0 mi Variable 4.6 mph - N/A   Clear
12:53 PM 60.1 °F - 36.0 °F 41% 30.29 in 8.0 mi NNW 3.5 mph - N/A   Clear
1:53 PM 63.0 °F - 34.0 °F 34% 30.26 in 10.0 mi Calm Calm - N/A   Clear
2:53 PM 64.9 °F - 33.1 °F 31% 30.23 in 10.0 mi Calm Calm - N/A   Clear
3:53 PM 66.9 °F - 30.0 °F 25% 30.22 in 10.0 mi NE 4.6 mph - N/A   Clear
4:53 PM 66.9 °F - 27.0 °F 22% 30.19 in 10.0 mi North 3.5 mph - N/A   Clear
5:53 PM 66.9 °F - 28.0 °F 23% 30.18 in 10.0 mi SE 4.6 mph - N/A   Clear
6:53 PM 66.0 °F - 23.0 °F 20% 30.17 in 10.0 mi South 4.6 mph - N/A   Clear
7:53 PM 61.0 °F - 24.1 °F 24% 30.17 in 10.0 mi SSE 4.6 mph - N/A   Clear
8:53 PM 52.0 °F - 26.1 °F 37% 30.17 in 10.0 mi SE 5.8 mph - N/A   Clear
9:53 PM 50.0 °F - 28.0 °F 43% 30.18 in 10.0 mi SE 6.9 mph - N/A   Clear
10:53 PM 52.0 °F - 28.9 °F 41% 30.18 in 6.0 mi SE 12.7 mph - N/A   Haze
11:53 PM 53.1 °F - 32.0 °F 45% 30.17 in 6.0 mi SE 11.5 mph - N/A   Haze